SCP
-0 -0 -0 -0 -0 -0 -0 -0 -0 -0 -0 -0 -0 -0 -0 -0 -0 -0 0 0 0 0 0 0 0 0 0 0 0 0 0 0 0 0 0 0 0 0 0 0 0 0 0 0 0 0 0
-0 -0 -0 -0 -0 -0 -0 -0 -0 -0 -0 -0 -0 -0 -0 -0 -0 -0 0 0 0 0 0 0 0 0 0 0 0 0 0 0 0 0 0 0 0 0 0 0 0 0 0 0 0 0 0
-0 -0 -0 -0 -0 -0 -0 -0 -0 -0 -0 -0 -0 -0 -0 -0 -0 -0 -0 -0 0 0 0 0 0 0 0 0 0 0 0 0 0 0 0 0 0 0 0 0 0 0 0 0 0 0 0
-0 -0 -0 -0 -0 -0 -0 -0 -0 -0 -0 -0 -0 -0 -0 -0 -0 -0 -0 -0 -0 0 0 0 -0 0 0 -0 0 0 0 0 0 0 0 0 0 0 0 0 0 0 0 0 0 0 0
-0 -0 -0 -0 -0 -0 -0 -0 -0 -0 -0 -0 -0 -0 -0 -0 -0 -0 -0 -0 0 -0 -0 0 -0 0 0 -0 0 0 0 0 0 0 -0 0 0 0 0 0 0 0 0 0 0 0 0
-0 -0 -0 -0 -0 -0 -0 -0 -0 -0 -0 -0 -0 -0 -0 -0 -0 -0 -0 -0 -0 0 0 -0 -0 0 0 0 -0 -0 -0 0 0 0 0 0 0 0 0 0 0 0 0 0 0 0 0
0 0 0 0 0 -0 -0 -0 -0 -0 -0 -0 -0 -0 -0 -0 -0 -0 0 -0 -0 0 -0 -0 -0 0 0 -0 -0 -0 -0 0 0 0 0 0 0 0 0 0 0 0 0 0 -0 0 0
0 0 0 0 0 0 -0 -0 -0 -0 -0 -0 -0 -0 -0 -0 -0 0 0 0 0 0 0 -0 -0 -0 -0 -0 0 -0 -0 -0 0 0 0 0 0 0 0 0 0 0 0 -0 -0 0 0
0 0 0 0 0 0 -0 -0 -0 -0 -0 -0 -0 -0 -0 -0 -0 0 0 0 0 0 0 -0 -0 -0 -0 -0 0 -0 -0 0 0 0 0 0 0 0 0 0 0 0 0 0 0 0 0
0 0 0 0 0 0 -0 -0 -0 -0 -0 -0 -0 -0 -0 -0 0 0 0 0 0 0 0 -0 -0 -0 -0 -0 0 -0 0 0 0 0 0 0 0 0 0 0 0 0 0 0 0 0 0
0 0 0 0 0 0 -0 -0 -0 -0 -0 -0 -0 -0 -0 0 0 0 0 0 0 -0 0 0 -0 -0 -0 -0 -0 -0 -0 0 0 0 0 0 0 0 0 0 0 0 0 0 0 0 0
0 0 0 0 0 -0 -0 -0 -0 -0 -0 -0 -0 -0 -0 0 0 0 0 0 -0 0 0 0 -0 -0 -0 -0 -0 -0 -0 0 0 0 0 0 0 0 0 0 0 0 0 0 0 0 0
0 0 0 0 -0 -0 -0 -0 -0 -0 -0 -0 -0 -0 0 0 0 0 0 0 0 0 0 0 0 0 0 0 0 0 0 0 0 0 0 0 0 0 0 0 0 0 0 0 0 0 0
0 0 0 0 -0 -0 -0 -0 -0 -0 -0 -0 -0 -0 0 0 0 0 0 0 0 0 0 0 0 0 0 0 0 0 0 0 0 0 0 0 0 0 0 0 0 0 0 0 0 0 0
0 0 0 0 -0 -0 -0 -0 -0 -0 -0 -0 -0 0 0 0 0 0 0 0 0 0 0 0 0 0 0 0 0 0 0 0 0 0 0 0 0 0 0 0 0 0 0 0 0 0 0
0 0 0 0 -0 -0 -0 -0 -0 -0 -0 -0 0 0 0 0 0 0 0 0 0 0 0 0 0 0 0 0 0 0 0 0 0 0 0 0 0 0 0 0 0 0 0 0 0 0 0
0 0 0 0 0 0 -0 -0 -0 -0 -0 -0 0 0 0 0 0 0 0 0 0 0 0 0 0 0 0 0 0 0 0 0 0 0 0 0 0 0 0 0 0 0 0 0 0 0 0
0 0 0 0 0 0 0 -0 -0 -0 -0 -0 0 0 0 0 0 0 0 0 0 0 0 0 0 0 0 0 0 0 0 0 0 0 0 0 0 0 0 0 0 0 0 0 0 0 0
0 0 0 0 0 0 -0 -0 -0 -0 0 0 0 0 0 0 0 0 0 0 0 0 0 0 0 0 0 0 0 0 0 0 0 0 0 0 0 0 0 0 0 0 0 0 0 0 0
0 0 0 0 0 0 0 0 0 -0 0 -0 0 0 0 0 0 0 0 0 0 0 0 0 0 0 0 0 0 0 0 0 0 0 0 0 0 0 0 0 0 0 0 0 0 0 0
0 0 0 0 0 0 0 0 0 0 0 0 0 0 0 0 0 0 0 0 0 0 0 0 0 0 0 0 0 0 0 0 0 0 0 0 0 0 0 0 0 0 0 0 0 0 0
0 0 0 0 0 0 0 0 0 0 0 0 0 0 0 0 0 0 0 0 0 0 0 0 0 0 0 0 0 0 0 0 0 0 0 0 0 0 0 0 0 0 0 0 0 0 0
0 0 0 0 0 0 0 0 0 0 0 0 0 0 0 0 0 0 0 0 0 0 0 0 0 0 0 0 0 0 0 0 0 0 0 0 0 0 0 0 0 0 0 0 0 0 0
0 0 0 0 0 0 0 0 0 0 0 0 0 0 0 0 0 0 0 0 0 0 0 0 0 0 0 0 0 0 0 0 0 0 0 0 0 0 0 0 0 0 0 0 0 0 0
0 0 0 0 0 0 0 0 0 0 0 0 0 0 0 0 0 0 0 0 0 0 0 0 0 0 0 0 0 0 0 0 0 0 0 0 0 0 0 0 0 0 0 0 0 0 0
0 0 0 0 0 0 0 0 0 0 0 0 0 0 0 0 0 0 0 0 0 0 0 0 0 0 0 0 0 0 0 0 0 0 0 0 0 0 0 0 0 0 0 0 0 0 0
0 0 0 0 0 0 0 0 0 0 0 0 0 0 0 0 0 0 0 0 0 0 0 0 0 0 0 0 0 0 0 0 0 0 0 0 0 0 0 0 0 0 0 0 0 0 0
0 0 0 0 0 0 0 0 0 0 0 0 0 0 0 0 0 0 0 0 0 0 0 0 0 0 0 0 0 0 0 0 0 0 0 0 0 0 0 0 0 0 0 0 0 0 0
0 0 0 0 0 0 0 0 0 0 0 0 0 0 0 0 0 0 0 0 0 0 0 0 0 0 0 0 0 0 0 0 0 0 0 0 0 0 0 0 0 0 0 0 0 0 0
Wind_Speed_500mb
58 60 63 64 65 64 62 57 49 38 32 30 29 29 29 30 30 29 26 23 18 13 10 11 13 19 11 11 11 15 20 22 10 3 7 10 11 8 8 5 7 8 6 13 14 14 15
55 55 57 59 61 62 61 58 54 47 35 26 23 23 23 25 26 27 26 24 19 12 10 11 15 21 6 8 9 10 11 14 14 12 5 13 8 8 7 5 7 3 5 9 9 12 6
53 53 54 54 55 57 58 58 56 52 45 34 23 19 19 20 22 24 25 25 19 10 9 13 20 26 5 4 6 6 10 12 11 10 12 12 10 4 2 6 1 0 5 4 4 5 4
53 53 53 53 53 53 54 55 55 53 50 44 32 22 18 17 19 22 26 30 12 4 8 15 24 19 3 6 5 7 6 12 15 9 10 5 5 1 2 1 3 3 2 7 6 6 8
52 53 54 54 54 53 52 52 53 54 52 48 42 29 21 17 16 20 25 26 10 5 7 16 14 10 5 10 11 3 5 6 8 12 12 4 7 3 2 3 5 7 4 2 6 5 3
51 53 54 56 56 55 53 52 51 52 53 51 47 37 26 18 14 16 22 16 16 5 5 14 5 3 6 12 7 3 5 5 5 12 13 4 2 3 4 3 9 7 4 3 6 4 11
50 52 54 56 57 57 56 55 53 52 52 52 49 40 32 21 13 12 13 12 12 3 20 12 12 11 12 8 5 3 6 5 7 5 4 4 7 12 9 4 3 6 5 8 11 6 11
49 51 53 55 57 58 58 57 56 54 53 52 50 44 36 22 12 8 6 5 10 10 11 18 19 21 14 7 1 4 9 6 3 3 3 4 8 5 8 4 12 11 8 12 9 9 18
49 51 53 55 57 59 60 59 59 58 56 54 51 47 36 21 9 3 6 8 13 15 4 10 4 7 3 5 3 2 13 6 3 3 3 3 6 3 6 6 12 8 11 8 9 14 15
48 50 52 55 57 59 61 62 61 61 59 57 53 47 39 19 1 6 8 9 10 9 4 3 5 4 8 6 4 5 9 1 3 4 7 2 9 7 9 7 7 3 9 4 3 9 9
48 50 52 54 56 58 62 64 65 63 63 60 54 47 41 17 7 8 4 7 6 5 3 3 5 4 7 5 6 5 4 1 4 5 5 5 8 8 9 6 4 4 0 3 4 6 5
49 51 52 54 55 58 61 64 67 67 65 61 56 46 36 19 11 15 6 3 5 2 5 2 4 7 7 3 5 3 5 7 6 5 7 4 4 5 4 4 7 11 3 8 6 2 11
51 52 52 54 55 58 60 64 67 69 68 63 54 41 28 10 8 19 10 3 1 5 3 4 4 6 7 5 6 5 7 10 5 2 8 6 6 6 9 3 6 3 1 6 7 7 5
50 51 51 52 54 58 62 65 69 69 70 66 54 32 14 9 26 16 13 5 7 3 7 1 3 9 7 5 4 4 7 6 10 5 4 3 6 12 17 6 4 8 2 6 9 7 5
50 50 50 49 52 57 61 66 69 69 69 69 55 14 8 8 28 18 12 3 6 8 4 3 4 6 3 4 7 5 5 5 3 4 1 2 3 3 11 7 4 7 3 4 9 2 6
50 49 48 48 50 52 55 59 67 68 65 68 44 11 16 19 23 15 6 5 6 7 9 1 3 1 6 4 6 4 5 2 4 5 4 6 2 5 5 2 17 3 10 5 2 6 8
50 47 47 46 48 49 54 58 63 69 64 62 28 6 15 21 14 6 4 8 8 13 10 2 5 5 6 5 6 4 5 4 4 5 5 4 1 3 3 12 7 1 2 8 5 4 5
48 47 46 46 46 47 50 55 57 65 64 59 25 2 13 17 2 3 3 5 7 9 2 2 6 6 5 5 6 5 6 4 9 1 4 4 4 1 4 2 4 8 6 3 3 6 1
44 45 45 45 44 43 45 48 51 55 58 60 34 12 13 14 3 1 5 6 7 6 5 3 4 4 5 6 7 4 6 6 3 4 6 8 4 1 4 6 4 7 6 7 6 1 7
43 44 44 43 42 42 42 44 45 45 46 45 16 7 10 13 12 4 7 4 3 4 5 7 6 6 7 5 7 9 7 6 7 10 13 8 5 4 7 3 4 2 3 2 1 2 2
39 41 42 40 39 41 40 39 40 39 37 32 13 4 6 7 6 5 3 4 5 2 4 5 6 4 9 6 4 6 5 7 8 4 7 3 4 4 3 2 1 1 6 5 4 2 5
37 37 38 38 36 36 36 37 34 34 29 17 11 9 8 9 11 7 3 3 3 2 5 1 10 6 5 7 5 13 12 7 4 6 5 3 6 5 4 4 2 5 5 10 8 8 10
35 34 35 36 35 34 34 32 29 27 24 9 13 11 8 5 6 4 2 4 2 7 8 6 21 11 12 10 14 16 11 13 8 7 6 3 9 5 3 1 2 9 8 4 4 4 3
33 33 33 33 32 31 31 30 26 22 18 12 12 11 5 5 5 3 5 6 3 2 7 5 7 6 9 18 18 16 17 16 13 14 5 10 9 2 2 4 7 5 4 5 3 5 8
32 32 31 31 31 29 28 27 24 20 16 11 10 6 5 7 7 7 9 5 2 10 9 9 9 13 19 9 4 4 3 5 7 11 4 1 9 5 4 5 6 6 9 10 8 5 18
33 32 29 26 28 28 27 26 24 19 18 13 11 9 6 6 4 8 6 6 2 4 6 8 13 14 9 6 3 7 8 5 7 7 7 11 10 4 5 4 6 5 11 10 8 6 22
33 30 28 22 22 27 25 24 23 19 18 15 12 13 9 8 9 4 4 4 1 3 5 6 7 6 7 4 4 6 5 2 10 12 10 7 4 8 6 6 6 6 19 17 6 4 20
36 29 27 24 16 24 25 22 21 19 19 17 15 14 16 10 24 18 8 4 4 1 3 9 7 3 4 5 5 5 6 5 5 5 7 13 13 7 6 7 10 27 16 10 5 10 17
33 29 25 24 20 18 25 24 20 18 15 18 13 15 17 21 18 19 24 24 22 11 2 11 1 5 8 7 4 4 4 5 5 5 2 7 6 6 12 4 4 25 4 11 15 16 13
Wind_Direction_500mb
37 36 36 35 35 35 33 32 31 29 31 32 34 37 37 36 35 34 33 33 33 36 48 59 35 21 47 82 81 54 53 63 80 169 168 136 136 133 137 156 157 218 190 214 250 238 249
34 32 32 32 32 32 31 30 28 25 20 17 19 21 23 24 23 23 23 20 18 27 50 34 18 7 49 95 87 49 34 36 42 40 145 164 133 107 105 139 197 280 248 244 252 270 230
30 29 28 27 27 27 27 27 26 23 19 11 1 358 360 3 7 10 11 8 6 20 25 5 356 358 90 91 70 35 24 12 19 48 70 149 134 65 61 145 316 89 267 246 215 266 244
26 25 24 23 23 22 21 22 21 21 18 13 3 345 336 340 347 352 355 354 6 16 357 348 346 357 41 56 25 114 49 29 21 77 119 103 218 336 136 90 61 101 119 229 126 279 29
24 22 21 20 20 19 17 16 15 16 15 12 7 353 333 319 326 336 348 356 7 325 332 337 343 359 73 40 41 87 94 58 44 109 145 132 115 95 86 112 138 42 137 122 137 71 33
19 18 18 16 15 14 14 13 11 10 10 9 6 359 341 317 308 322 353 357 357 340 320 329 356 17 81 358 39 359 139 115 117 129 105 144 106 177 133 207 209 175 166 173 272 175 356
13 11 10 10 10 9 9 9 9 6 5 4 3 359 348 328 299 305 2 3 355 345 313 263 276 281 292 338 312 132 179 157 177 171 195 60 239 241 248 205 209 179 200 250 265 341 83
5 4 4 4 3 4 4 4 4 3 2 1 358 356 351 332 306 285 61 65 25 327 308 300 264 263 276 287 297 214 195 189 157 183 141 203 263 287 181 166 189 191 208 239 271 104 103
360 0 360 359 358 358 359 0 359 358 357 358 354 352 349 338 309 232 147 31 352 345 303 298 245 261 215 176 188 130 175 165 149 144 202 233 348 187 260 161 177 212 235 224 258 127 100
353 354 355 355 355 354 354 355 357 356 353 353 352 347 345 342 258 154 143 8 351 335 355 273 231 197 191 161 84 165 187 223 126 43 148 45 338 106 126 109 186 176 204 214 210 200 187
348 349 351 351 350 351 351 351 351 352 351 349 347 343 340 329 220 169 196 8 356 334 155 149 188 164 174 161 135 71 103 134 52 55 258 62 38 58 67 3 254 84 49 73 80 101 200
345 344 346 345 345 346 348 348 346 348 350 348 345 337 334 327 223 199 196 347 333 250 230 151 165 166 144 73 60 102 95 81 75 88 34 42 316 30 12 65 37 142 82 59 66 118 237
339 339 342 341 342 342 345 345 343 345 347 346 344 331 323 309 184 169 173 190 187 222 349 145 174 173 180 102 70 43 50 37 34 177 31 356 40 2 27 214 78 145 126 279 244 222 301
333 335 337 337 339 339 341 343 341 342 344 345 344 331 316 190 166 147 148 86 218 236 236 78 89 111 150 134 75 86 106 99 56 42 95 14 189 10 354 31 352 40 264 262 279 257 156
328 331 333 336 337 338 339 341 339 341 344 345 348 3 89 168 172 161 141 162 238 218 307 309 128 123 110 119 132 119 70 117 47 34 121 160 180 7 41 21 309 141 204 54 113 105 220
322 326 329 333 336 338 339 343 341 342 346 347 349 87 51 125 145 143 108 226 251 239 323 321 142 180 150 128 134 133 150 120 116 31 246 155 251 33 337 270 59 359 122 210 169 212 242
316 320 325 331 332 334 335 342 343 344 347 350 356 85 25 147 145 131 179 234 272 269 243 255 158 121 92 110 97 102 131 89 24 71 92 125 294 107 292 23 340 257 157 64 87 329 270
312 316 320 324 327 329 331 336 345 345 348 355 359 6 21 170 81 26 176 208 305 292 85 118 98 92 97 84 95 118 139 54 2 50 61 35 93 304 67 14 13 51 57 37 248 200 72
311 315 317 318 320 324 329 334 345 347 351 352 344 310 14 169 150 314 315 277 255 313 18 60 103 47 55 110 114 106 102 25 40 72 135 168 53 131 93 180 149 52 38 87 92 70 199
309 311 312 314 316 320 325 332 342 348 348 352 353 331 0 78 78 62 1 307 259 59 87 60 108 117 111 90 34 136 132 39 57 89 103 104 110 239 256 58 356 204 342 48 268 213 219
306 305 308 312 316 317 320 326 335 345 348 354 357 27 350 339 52 14 243 292 289 218 68 52 89 95 138 124 106 130 136 139 81 112 66 65 135 178 167 328 230 302 309 316 243 49 250
308 308 307 309 311 313 314 320 330 339 349 2 8 351 331 284 296 292 173 203 265 162 330 104 133 117 106 144 176 186 153 192 171 102 84 42 141 168 193 146 341 235 138 99 94 115 105
306 307 306 307 309 311 312 314 322 334 353 3 346 327 315 287 306 269 190 290 48 151 43 44 134 115 104 105 105 96 94 95 118 158 127 116 145 154 230 70 272 249 205 184 136 177 165
305 302 300 302 305 307 309 310 317 326 342 353 335 332 310 282 276 295 306 285 269 172 149 67 66 98 126 128 106 87 71 78 76 57 71 139 124 91 164 192 234 79 325 228 237 168 186
302 298 302 302 300 303 304 305 308 311 316 318 312 311 304 285 291 286 318 302 124 92 90 92 59 107 141 128 96 109 92 153 80 39 58 25 133 119 202 209 323 198 190 173 188 205 198
297 295 294 301 300 299 300 304 304 301 293 290 287 256 275 291 226 304 305 320 205 115 115 106 100 115 130 81 123 206 205 170 163 137 78 92 75 131 161 202 246 91 160 161 154 263 187
307 297 290 291 310 305 300 299 300 296 281 274 260 252 250 262 276 293 270 306 212 108 110 138 154 128 115 118 168 202 207 199 174 183 170 159 118 198 162 224 267 157 149 158 232 37 166
312 302 285 282 296 310 305 299 294 292 278 264 252 246 225 260 277 271 264 287 271 147 171 148 143 163 111 147 192 177 211 176 199 150 184 180 173 178 156 199 242 154 147 212 104 114 158
304 306 294 274 267 290 309 303 295 289 271 270 251 237 234 248 265 272 271 259 253 270 280 183 194 152 152 113 172 141 176 182 180 209 198 206 201 174 195 202 120 174 153 178 148 148 166
Wind_Speed_850mb
58 60 63 64 65 64 62 57 49 38 32 30 29 29 29 30 30 29 26 23 18 13 10 11 13 19 11 11 11 15 20 22 10 3 7 10 11 8 8 5 7 8 6 13 14 14 15
55 55 57 59 61 62 61 58 54 47 35 26 23 23 23 25 26 27 26 24 19 12 10 11 15 21 6 8 9 10 11 14 14 12 5 13 8 8 7 5 7 3 5 9 9 12 6
53 53 54 54 55 57 58 58 56 52 45 34 23 19 19 20 22 24 25 25 19 10 9 13 20 26 5 4 6 6 10 12 11 10 12 12 10 4 2 6 1 0 5 4 4 5 4
53 53 53 53 53 53 54 55 55 53 50 44 32 22 18 17 19 22 26 30 12 4 8 15 24 19 3 6 5 7 6 12 15 9 10 5 5 1 2 1 3 3 2 7 6 6 8
52 53 54 54 54 53 52 52 53 54 52 48 42 29 21 17 16 20 25 26 10 5 7 16 14 10 5 10 11 3 5 6 8 12 12 4 7 3 2 3 5 7 4 2 6 5 3
51 53 54 56 56 55 53 52 51 52 53 51 47 37 26 18 14 16 22 16 16 5 5 14 5 3 6 12 7 3 5 5 5 12 13 4 2 3 4 3 9 7 4 3 6 4 11
50 52 54 56 57 57 56 55 53 52 52 52 49 40 32 21 13 12 13 12 12 3 20 12 12 11 12 8 5 3 6 5 7 5 4 4 7 12 9 4 3 6 5 8 11 6 11
49 51 53 55 57 58 58 57 56 54 53 52 50 44 36 22 12 8 6 5 10 10 11 18 19 21 14 7 1 4 9 6 3 3 3 4 8 5 8 4 12 11 8 12 9 9 18
49 51 53 55 57 59 60 59 59 58 56 54 51 47 36 21 9 3 6 8 13 15 4 10 4 7 3 5 3 2 13 6 3 3 3 3 6 3 6 6 12 8 11 8 9 14 15
48 50 52 55 57 59 61 62 61 61 59 57 53 47 39 19 1 6 8 9 10 9 4 3 5 4 8 6 4 5 9 1 3 4 7 2 9 7 9 7 7 3 9 4 3 9 9
48 50 52 54 56 58 62 64 65 63 63 60 54 47 41 17 7 8 4 7 6 5 3 3 5 4 7 5 6 5 4 1 4 5 5 5 8 8 9 6 4 4 0 3 4 6 5
49 51 52 54 55 58 61 64 67 67 65 61 56 46 36 19 11 15 6 3 5 2 5 2 4 7 7 3 5 3 5 7 6 5 7 4 4 5 4 4 7 11 3 8 6 2 11
51 52 52 54 55 58 60 64 67 69 68 63 54 41 28 10 8 19 10 3 1 5 3 4 4 6 7 5 6 5 7 10 5 2 8 6 6 6 9 3 6 3 1 6 7 7 5
50 51 51 52 54 58 62 65 69 69 70 66 54 32 14 9 26 16 13 5 7 3 7 1 3 9 7 5 4 4 7 6 10 5 4 3 6 12 17 6 4 8 2 6 9 7 5
50 50 50 49 52 57 61 66 69 69 69 69 55 14 8 8 28 18 12 3 6 8 4 3 4 6 3 4 7 5 5 5 3 4 1 2 3 3 11 7 4 7 3 4 9 2 6
50 49 48 48 50 52 55 59 67 68 65 68 44 11 16 19 23 15 6 5 6 7 9 1 3 1 6 4 6 4 5 2 4 5 4 6 2 5 5 2 17 3 10 5 2 6 8
50 47 47 46 48 49 54 58 63 69 64 62 28 6 15 21 14 6 4 8 8 13 10 2 5 5 6 5 6 4 5 4 4 5 5 4 1 3 3 12 7 1 2 8 5 4 5
48 47 46 46 46 47 50 55 57 65 64 59 25 2 13 17 2 3 3 5 7 9 2 2 6 6 5 5 6 5 6 4 9 1 4 4 4 1 4 2 4 8 6 3 3 6 1
44 45 45 45 44 43 45 48 51 55 58 60 34 12 13 14 3 1 5 6 7 6 5 3 4 4 5 6 7 4 6 6 3 4 6 8 4 1 4 6 4 7 6 7 6 1 7
43 44 44 43 42 42 42 44 45 45 46 45 16 7 10 13 12 4 7 4 3 4 5 7 6 6 7 5 7 9 7 6 7 10 13 8 5 4 7 3 4 2 3 2 1 2 2
39 41 42 40 39 41 40 39 40 39 37 32 13 4 6 7 6 5 3 4 5 2 4 5 6 4 9 6 4 6 5 7 8 4 7 3 4 4 3 2 1 1 6 5 4 2 5
37 37 38 38 36 36 36 37 34 34 29 17 11 9 8 9 11 7 3 3 3 2 5 1 10 6 5 7 5 13 12 7 4 6 5 3 6 5 4 4 2 5 5 10 8 8 10
35 34 35 36 35 34 34 32 29 27 24 9 13 11 8 5 6 4 2 4 2 7 8 6 21 11 12 10 14 16 11 13 8 7 6 3 9 5 3 1 2 9 8 4 4 4 3
33 33 33 33 32 31 31 30 26 22 18 12 12 11 5 5 5 3 5 6 3 2 7 5 7 6 9 18 18 16 17 16 13 14 5 10 9 2 2 4 7 5 4 5 3 5 8
32 32 31 31 31 29 28 27 24 20 16 11 10 6 5 7 7 7 9 5 2 10 9 9 9 13 19 9 4 4 3 5 7 11 4 1 9 5 4 5 6 6 9 10 8 5 18
33 32 29 26 28 28 27 26 24 19 18 13 11 9 6 6 4 8 6 6 2 4 6 8 13 14 9 6 3 7 8 5 7 7 7 11 10 4 5 4 6 5 11 10 8 6 22
33 30 28 22 22 27 25 24 23 19 18 15 12 13 9 8 9 4 4 4 1 3 5 6 7 6 7 4 4 6 5 2 10 12 10 7 4 8 6 6 6 6 19 17 6 4 20
36 29 27 24 16 24 25 22 21 19 19 17 15 14 16 10 24 18 8 4 4 1 3 9 7 3 4 5 5 5 6 5 5 5 7 13 13 7 6 7 10 27 16 10 5 10 17
33 29 25 24 20 18 25 24 20 18 15 18 13 15 17 21 18 19 24 24 22 11 2 11 1 5 8 7 4 4 4 5 5 5 2 7 6 6 12 4 4 25 4 11 15 16 13
Wind_Direction_850mb
37 36 36 35 35 35 33 32 31 29 31 32 34 37 37 36 35 34 33 33 33 36 48 59 35 21 47 82 81 54 53 63 80 169 168 136 136 133 137 156 157 218 190 214 250 238 249
34 32 32 32 32 32 31 30 28 25 20 17 19 21 23 24 23 23 23 20 18 27 50 34 18 7 49 95 87 49 34 36 42 40 145 164 133 107 105 139 197 280 248 244 252 270 230
30 29 28 27 27 27 27 27 26 23 19 11 1 358 360 3 7 10 11 8 6 20 25 5 356 358 90 91 70 35 24 12 19 48 70 149 134 65 61 145 316 89 267 246 215 266 244
26 25 24 23 23 22 21 22 21 21 18 13 3 345 336 340 347 352 355 354 6 16 357 348 346 357 41 56 25 114 49 29 21 77 119 103 218 336 136 90 61 101 119 229 126 279 29
24 22 21 20 20 19 17 16 15 16 15 12 7 353 333 319 326 336 348 356 7 325 332 337 343 359 73 40 41 87 94 58 44 109 145 132 115 95 86 112 138 42 137 122 137 71 33
19 18 18 16 15 14 14 13 11 10 10 9 6 359 341 317 308 322 353 357 357 340 320 329 356 17 81 358 39 359 139 115 117 129 105 144 106 177 133 207 209 175 166 173 272 175 356
13 11 10 10 10 9 9 9 9 6 5 4 3 359 348 328 299 305 2 3 355 345 313 263 276 281 292 338 312 132 179 157 177 171 195 60 239 241 248 205 209 179 200 250 265 341 83
5 4 4 4 3 4 4 4 4 3 2 1 358 356 351 332 306 285 61 65 25 327 308 300 264 263 276 287 297 214 195 189 157 183 141 203 263 287 181 166 189 191 208 239 271 104 103
360 0 360 359 358 358 359 0 359 358 357 358 354 352 349 338 309 232 147 31 352 345 303 298 245 261 215 176 188 130 175 165 149 144 202 233 348 187 260 161 177 212 235 224 258 127 100
353 354 355 355 355 354 354 355 357 356 353 353 352 347 345 342 258 154 143 8 351 335 355 273 231 197 191 161 84 165 187 223 126 43 148 45 338 106 126 109 186 176 204 214 210 200 187
348 349 351 351 350 351 351 351 351 352 351 349 347 343 340 329 220 169 196 8 356 334 155 149 188 164 174 161 135 71 103 134 52 55 258 62 38 58 67 3 254 84 49 73 80 101 200
345 344 346 345 345 346 348 348 346 348 350 348 345 337 334 327 223 199 196 347 333 250 230 151 165 166 144 73 60 102 95 81 75 88 34 42 316 30 12 65 37 142 82 59 66 118 237
339 339 342 341 342 342 345 345 343 345 347 346 344 331 323 309 184 169 173 190 187 222 349 145 174 173 180 102 70 43 50 37 34 177 31 356 40 2 27 214 78 145 126 279 244 222 301
333 335 337 337 339 339 341 343 341 342 344 345 344 331 316 190 166 147 148 86 218 236 236 78 89 111 150 134 75 86 106 99 56 42 95 14 189 10 354 31 352 40 264 262 279 257 156
328 331 333 336 337 338 339 341 339 341 344 345 348 3 89 168 172 161 141 162 238 218 307 309 128 123 110 119 132 119 70 117 47 34 121 160 180 7 41 21 309 141 204 54 113 105 220
322 326 329 333 336 338 339 343 341 342 346 347 349 87 51 125 145 143 108 226 251 239 323 321 142 180 150 128 134 133 150 120 116 31 246 155 251 33 337 270 59 359 122 210 169 212 242
316 320 325 331 332 334 335 342 343 344 347 350 356 85 25 147 145 131 179 234 272 269 243 255 158 121 92 110 97 102 131 89 24 71 92 125 294 107 292 23 340 257 157 64 87 329 270
312 316 320 324 327 329 331 336 345 345 348 355 359 6 21 170 81 26 176 208 305 292 85 118 98 92 97 84 95 118 139 54 2 50 61 35 93 304 67 14 13 51 57 37 248 200 72
311 315 317 318 320 324 329 334 345 347 351 352 344 310 14 169 150 314 315 277 255 313 18 60 103 47 55 110 114 106 102 25 40 72 135 168 53 131 93 180 149 52 38 87 92 70 199
309 311 312 314 316 320 325 332 342 348 348 352 353 331 0 78 78 62 1 307 259 59 87 60 108 117 111 90 34 136 132 39 57 89 103 104 110 239 256 58 356 204 342 48 268 213 219
306 305 308 312 316 317 320 326 335 345 348 354 357 27 350 339 52 14 243 292 289 218 68 52 89 95 138 124 106 130 136 139 81 112 66 65 135 178 167 328 230 302 309 316 243 49 250
308 308 307 309 311 313 314 320 330 339 349 2 8 351 331 284 296 292 173 203 265 162 330 104 133 117 106 144 176 186 153 192 171 102 84 42 141 168 193 146 341 235 138 99 94 115 105
306 307 306 307 309 311 312 314 322 334 353 3 346 327 315 287 306 269 190 290 48 151 43 44 134 115 104 105 105 96 94 95 118 158 127 116 145 154 230 70 272 249 205 184 136 177 165
305 302 300 302 305 307 309 310 317 326 342 353 335 332 310 282 276 295 306 285 269 172 149 67 66 98 126 128 106 87 71 78 76 57 71 139 124 91 164 192 234 79 325 228 237 168 186
302 298 302 302 300 303 304 305 308 311 316 318 312 311 304 285 291 286 318 302 124 92 90 92 59 107 141 128 96 109 92 153 80 39 58 25 133 119 202 209 323 198 190 173 188 205 198
297 295 294 301 300 299 300 304 304 301 293 290 287 256 275 291 226 304 305 320 205 115 115 106 100 115 130 81 123 206 205 170 163 137 78 92 75 131 161 202 246 91 160 161 154 263 187
307 297 290 291 310 305 300 299 300 296 281 274 260 252 250 262 276 293 270 306 212 108 110 138 154 128 115 118 168 202 207 199 174 183 170 159 118 198 162 224 267 157 149 158 232 37 166
312 302 285 282 296 310 305 299 294 292 278 264 252 246 225 260 277 271 264 287 271 147 171 148 143 163 111 147 192 177 211 176 199 150 184 180 173 178 156 199 242 154 147 212 104 114 158
304 306 294 274 267 290 309 303 295 289 271 270 251 237 234 248 265 272 271 259 253 270 280 183 194 152 152 113 172 141 176 182 180 209 198 206 201 174 195 202 120 174 153 178 148 148 166